Flag for Australia Weather past 2 weeks in Hobart, Tasmania, Australia

Now
48 °F

Passing clouds.


Feels Like: 42 °F
Forecast: 37 / 46 °F
Wind: 17 mph from Northwest

Location: Hobart Airport

Current Time: Jul 31, 2014 at 6:47:16 PM

Latest Report: Jul 31, 2014 at 6:04 PM


Visibility: N/A

Pressure: 28.97 "Hg

Humidity: 62%

Dew point: 36 °F

Location of HobartLocation

Historic Weather in Hobart — Graph

°F

Hobart temperature yesterday

Maximum temperature yesterday: 59 °F (at 10:30 PM)
Minimum temperature yesterday: 46 °F (at 1:00 AM)
Average temperature yesterday: 53 °F

Past Weeks' High & Low Weather Summary

 TemperatureHumidityPressure
High61 °F (Jul 28, 1:00 PM)100% (Jul 19, 5:30 AM)30.33 "Hg (Jul 19, 5:30 AM)
Low34 °F (Jul 21, 7:00 AM)29% (Jul 28, 3:30 PM)28.94 "Hg (Jul 31, 5:00 PM)
Average47 °F77%29.89 "Hg
* Reported Jul 16 5:00 PM — Jul 31 5:30 PM, Hobart, Weather by CustomWeather, © 2014

Note: Actual official high and low records may vary slightly from our data, if they occured in-between our weather recording intervals... More about our weather records

Advertising

Hobart weather history for previous 24 hours

 ConditionsComfort  
Time TempWeatherWind HumidityBarometerVisibility
5:30 PM
Jul 31
46 °FPartly cloudy.8 mph76%28.97 "HgN/A
5:00 PM45 °FPassing clouds.8 mph87%28.94 "HgN/A
4:30 PM45 °FPassing clouds.9 mph87%28.97 "HgN/A
4:00 PM45 °FPartly sunny.10 mph81%29.00 "HgN/A
3:30 PM45 °FBroken clouds.6 mph87%28.97 "HgN/A
3:00 PM45 °FDrizzle. Broken clouds.6 mph87%28.97 "HgN/A
2:30 PM43 °FLight rain. More clouds than sun.5 mph87%29.03 "HgN/A
2:00 PM45 °FLight rain. More clouds than sun.7 mph93%29.00 "Hg4 mi
1:30 PM45 °FRain. More clouds than sun.7 mph93%29.00 "Hg4 mi
1:00 PM45 °FRain. Mostly cloudy.6 mph93%29.00 "Hg3 mi
12:30 PM45 °FRain. Mostly cloudy.5 mph93%29.00 "Hg3 mi
12:00 PM45 °FRain. More clouds than sun.6 mph100%29.03 "Hg4 mi
11:30 AM45 °FRain. More clouds than sun.1 mph100%29.06 "Hg3 mi
11:00 AM45 °FRain. Low clouds.6 mph100%29.06 "Hg3 mi
10:30 AM45 °FRain. Low clouds.2 mph100%29.12 "Hg4 mi
10:00 AM46 °FRain. Low clouds.6 mph93%29.12 "Hg4 mi
9:30 AM46 °FLight rain. Low clouds.6 mph93%29.12 "HgN/A
9:00 AM46 °FLight rain. Low clouds.5 mph93%29.12 "HgN/A
8:30 AM46 °FLight rain. Partly sunny.3 mph87%29.18 "HgN/A
8:00 AM46 °FLight rain. Partly sunny.6 mph87%29.21 "HgN/A
7:30 AM45 °FLight rain. Low clouds.8 mph93%29.21 "Hg6 mi
7:00 AM45 °FLight rain. Low clouds.8 mph93%29.21 "Hg5 mi
6:30 AM45 °FSprinkles. Broken clouds.6 mph93%29.21 "HgN/A
6:00 AM45 °FPassing clouds.5 mph87%29.21 "HgN/A
5:30 AM46 °FPartly cloudy.10 mph87%29.21 "HgN/A
5:00 AM46 °FRain showers. Passing clouds.15 mph93%29.24 "Hg4 mi
4:30 AM50 °FRain showers. Partly cloudy.13 mph88%29.21 "HgN/A
4:00 AM52 °FSprinkles. Passing clouds.22 mph77%29.15 "HgN/A
3:30 AM52 °FPassing clouds.8 mph77%29.18 "HgN/A
3:00 AM54 °FPassing clouds.14 mph72%29.18 "HgN/A
2:30 AM55 °FSprinkles. Passing clouds.18 mph67%29.21 "HgN/A
2:00 AM57 °FPartly cloudy.23 mph55%29.18 "HgN/A
1:00 AM57 °FPassing clouds.23 mph51%29.15 "HgN/A
12:30 AM57 °FPassing clouds.22 mph51%29.15 "HgN/A
12:00 AM57 °FPassing clouds.28 mph51%29.18 "HgN/A
11:30 PM
Jul 30
55 °FPassing clouds.20 mph55%29.21 "HgN/A
11:00 PM55 °FPassing clouds.24 mph59%29.21 "HgN/A
10:58 PM55 °FPassing clouds.24 mph59%29.21 "HgN/A
10:30 PM59 °FPassing clouds.36 mph45%29.21 "HgN/A
10:00 PM57 °FPassing clouds.24 mph48%29.21 "HgN/A
9:30 PM57 °FPassing clouds.29 mph48%29.21 "HgN/A
9:00 PM55 °FPassing clouds.15 mph59%29.24 "HgN/A
8:30 PM54 °FPassing clouds.12 mph67%29.27 "HgN/A
8:00 PM54 °FPassing clouds.20 mph63%29.27 "HgN/A
7:30 PM54 °FPassing clouds.16 mph63%29.27 "HgN/A
7:00 PM54 °FPassing clouds.15 mph63%29.30 "HgN/A
6:30 PM55 °FPassing clouds.23 mph59%29.30 "HgN/A
6:00 PM54 °FPartly cloudy.15 mph72%29.30 "HgN/A
Weather by CustomWeather, © 2014

See weather overviewHow to use our weather pages